NOAA 16 DEB, 41073

Orbit data source: Space-Track

NOAA 16 DEB, 41073 is space debris in SSO originally from a launch on Thu, 21 Sep 2000 UTC launched from the Air Force Western Test Range (AFWTR). Debris objects in space refer to the collection of defunct objects orbiting the Earth. Examples of debris include non-operational satellites, rocket bodies, and fragments generated from explosions, collisions, or faulty payload assembly.

Loading next visibility...
Identifier
41073, 2000-055AG
Orbit
SSO
Country
Flag of USUS
Related business
Manufacturer
Unknown
Mission
Spacecraft
Bus & Motor
Unknown
Mass
Unknown
Launch date (UTC)
2000-09-21 (25 years ago)
Launch vehicle
Unknown
Launch site
Air Force Western Test Range (AFWTR)
Object type
Payload
Rocket body
Debris
Shape & HBR
Unknown shape, 0.1 m
Radar Cross Section
Small (<0.1 m²)

Expand to show TLE details & history
Last TLE update: 14 hours ago

TLE from 14 hours ago
0 NOAA 16 DEB
1 41073U 00055AG  25303.76374373  .00005392  00000-0  20605-2 0  9992
2 41073  98.7805  49.2221 0020022 131.8051 228.4846 14.31003070514541
Epoch: 2025-10-30T18:19Z
TLE epoch observation values (Epoch: 2025-10-30T18:19:47.458Z)
Latitude
0.00004°
Longitude
94.9565°
Altitude
800.836 km
Speed
7.448 km/s
True Right ascension
03h 16m 53s
True Declination
0° 00' 00"
Sunlit
Object was in full shadow at epoch
Visualization orbit readout
Latitude
Unknown
Longitude
Unknown
Altitude
Unknown
Speed
Unknown
Apparent Right ascension
Unknown
Apparent Declination
Unknown
Sunlit
N/A
Visualization observer readout
Local Sidereal Time
04:16:37
Azimuth
Unknown
Elevation
Unknown
Doppler factor
Unknown
Orbital elements
Apogee altitude
799.87 km
Perigee altitude
771.184 km
Semi-major axis
7,163.664 km
Eccentricity
0.002
Inclination
98.7805°
RAAN
49.2221°
Arg. of periapsis
131.8051°
True anomaly
228.31309°
Mean anomaly
228.4846°
Eccentric anomaly
228.39882°
Mean motion
3.57965 °/min
Orbital period
100.57 mins
BSTAR
0.0020605
Loading maneuver chart data...
Computing Atmospheric mass density...
Loading historical data...
Loading historical data...
Loading historical data...
Loading historical data...
Loading historical data...
Loading historical data...
Loading historical data...

Documentation

Showing up to 5 results
|